Location: Ecklingerode
(51.5036°N, 10.3122°E)
Time: 07:34:21
(UTC+00:00)

H-2A R/B - Pass Details

Date: 29 October 2020
Orbit: 733 x 837 km, 98.2° (Epoch: 01 December)

Event Time Altitude Azimuth Distance (km) Brightness Sun altitude
Rises 17:57:05 0° 159° (SSE) 3,361 5.1 -19.2°
Reaches altitude 10° 17:59:25 10° 158° (SSE) 2,438 4.4 -19.6°
Maximum altitude 18:04:51 79° 73° (ENE) 859 2.1 -20.4°
Drops below altitude 10° 18:10:20 10° 347° (NNW) 2,461 4.8 -21.3°
Sets 18:12:42 0° 347° (NNW) 3,394 5.6 -21.6°
